Wind_Speed
4 5 6 6 7 8 9 10 11 12 13 14 15 16 16 17 18 19 19 20 21 21 22 22 23 23 24 25 25 26 27 27 29 31 32 34 35 36 38 39 40 40 42 44 46 46 50 56 63 67 71 74 75 74 74 74 74 73 72 72 72 71 70 69 67 66 65 65 63 60 60 60 59 59 60 61 62 62 62 62 62 60 58 57 55 53 51 49
5 6 7 8 8 9 10 11 12 13 13 14 15 16 17 17 18 18 19 20 20 21 22 23 24 24 25 26 27 28 29 29 31 33 35 37 38 40 41 42 42 42 42 44 47 48 47 50 56 61 66 70 74 75 75 75 75 74 74 74 73 71 70 70 69 68 66 65 64 61 61 62 61 61 62 62 62 62 61 61 62 61 60 59 58 56 55 53
6 7 8 9 10 11 11 12 13 13 14 14 15 16 17 18 18 19 19 20 20 21 22 23 24 25 26 27 28 30 31 32 33 35 37 40 42 44 45 46 46 45 45 45 46 49 50 50 51 56 60 64 69 73 74 76 76 75 75 75 74 72 72 72 71 70 68 66 64 62 61 62 61 62 63 63 63 63 62 61 60 60 60 60 60 59 58 57
8 9 10 11 11 12 13 13 14 14 15 15 16 17 18 19 19 20 21 21 21 22 23 23 25 26 27 29 30 31 32 33 35 37 39 41 44 46 48 49 49 48 48 48 47 49 51 52 52 53 57 60 64 67 70 74 76 77 76 75 74 74 74 73 72 71 70 68 65 63 61 61 61 61 63 64 65 64 64 62 60 59 59 59 60 60 60 59
11 11 11 12 13 14 14 15 15 16 16 17 18 19 19 20 21 22 23 23 23 24 24 25 26 27 28 30 31 33 34 35 36 37 39 42 45 48 50 51 52 50 51 51 50 49 50 52 53 53 55 58 61 63 65 69 73 76 76 75 74 74 75 75 73 71 71 69 67 65 63 62 60 60 62 64 65 65 65 64 62 60 59 59 59 60 60 60
12 13 13 14 14 15 16 16 17 17 18 18 19 20 20 21 22 23 24 24 25 25 26 26 27 28 29 30 32 34 35 36 37 38 40 42 45 48 51 53 54 54 54 54 52 50 50 50 52 53 54 57 60 62 62 64 68 71 73 75 74 73 74 74 74 72 71 70 69 66 64 63 61 59 60 62 64 65 65 65 64 63 61 60 59 60 60 59
13 14 14 15 16 16 17 18 18 19 19 19 19 20 20 21 22 23 24 25 25 26 26 27 27 28 30 31 32 34 36 37 39 40 41 43 45 49 52 55 57 57 57 56 54 52 50 48 49 51 52 56 60 61 62 62 63 65 68 72 74 74 73 73 73 72 71 70 69 68 66 65 63 60 59 60 63 64 65 65 65 65 63 62 60 60 59 58
15 15 16 16 17 17 18 18 19 19 19 19 19 20 20 21 22 22 24 25 25 26 27 27 28 29 30 32 33 35 37 38 40 41 42 44 46 49 52 56 58 60 60 58 56 54 51 47 44 45 47 52 57 60 62 61 60 61 63 66 70 73 74 73 72 70 71 70 69 69 67 67 65 62 59 59 61 63 65 65 65 65 64 63 61 60 59 57
17 17 17 17 18 18 19 19 19 19 19 20 20 21 21 22 22 23 24 25 25 26 27 28 28 30 31 32 33 35 37 38 40 42 43 44 46 49 52 56 59 61 62 61 60 58 54 47 41 39 40 45 52 57 61 61 60 60 60 62 64 68 71 73 72 70 69 69 69 69 68 68 67 64 61 59 60 61 63 64 65 65 65 63 60 59 59 58
19 20 20 20 19 20 20 20 20 20 21 21 21 22 22 22 23 24 24 25 26 26 27 28 28 29 31 32 34 35 37 38 40 42 43 44 46 49 52 56 59 61 63 63 62 61 57 48 39 34 33 38 44 51 58 59 60 60 59 59 59 62 66 71 72 70 69 67 68 68 68 69 69 67 63 60 60 61 61 63 64 65 65 62 57 56 59 60
21 21 22 22 22 21 22 22 22 22 22 22 23 23 23 23 24 25 25 25 26 26 27 28 28 29 30 32 33 35 36 38 40 41 43 44 46 48 51 55 58 61 63 64 63 63 58 49 38 32 29 31 36 44 51 55 57 57 57 56 56 58 61 66 69 71 70 67 67 67 68 69 70 68 65 62 62 62 62 62 62 63 64 62 58 56 54 56
22 23 23 23 23 23 23 23 23 23 23 23 23 24 24 23 24 25 25 26 26 26 27 27 28 28 30 31 32 34 36 38 40 41 43 44 45 47 49 53 56 59 62 63 63 63 59 49 38 31 28 27 29 35 43 49 53 54 55 55 54 55 57 60 64 68 69 68 68 67 68 69 69 69 66 64 63 63 63 62 62 62 63 62 62 61 54 52
23 24 24 24 25 25 24 24 24 24 24 24 24 25 24 24 24 25 25 26 26 27 27 27 27 28 29 30 31 33 35 37 39 41 42 44 45 46 48 51 54 57 59 60 61 62 60 50 38 30 27 25 25 29 35 41 46 49 52 53 53 53 54 57 59 63 66 68 69 68 69 69 67 68 67 66 65 64 64 63 63 62 63 62 61 63 58 53
24 24 25 25 25 25 25 25 25 25 25 25 24 25 25 25 25 25 25 26 26 27 27 28 28 28 29 30 31 32 34 36 38 40 42 44 45 46 47 49 52 54 56 58 59 60 60 53 40 30 26 24 23 24 28 34 39 43 47 49 51 51 53 54 55 58 62 65 68 68 70 69 66 67 67 67 66 66 65 64 64 63 63 63 61 62 60 56
24 24 25 25 26 26 26 26 25 25 25 25 25 25 25 25 25 25 26 26 27 27 27 28 28 28 29 29 30 32 33 35 37 39 41 43 45 45 46 48 50 52 54 55 57 58 59 56 45 32 25 23 21 21 22 27 32 37 42 44 47 49 51 52 52 54 57 61 65 67 70 70 67 66 67 67 67 67 67 65 65 65 64 64 62 61 62 62
25 25 25 26 26 26 26 26 26 26 26 26 26 26 26 26 26 26 26 26 27 27 27 28 28 28 28 29 30 31 33 35 36 38 40 42 43 44 44 45 47 50 52 53 54 55 57 57 51 37 27 22 21 20 19 21 25 31 36 39 42 45 48 51 52 52 54 57 61 64 69 71 69 67 67 67 67 67 68 67 67 67 66 66 64 62 63 67
26 25 26 26 26 27 27 27 27 26 26 26 26 26 26 26 26 26 26 26 26 27 27 28 28 27 28 28 29 30 32 34 35 37 38 41 42 42 42 43 44 47 48 50 52 53 54 56 54 45 31 23 21 20 19 19 20 24 30 34 37 40 44 47 49 51 52 54 56 61 65 68 70 69 67 67 66 67 68 68 68 68 68 67 66 65 63 66
28 27 26 26 27 27 27 27 27 27 26 26 26 27 27 26 26 26 26 26 26 27 27 28 28 28 27 28 28 29 32 33 35 36 37 39 41 41 41 41 42 44 45 47 49 50 51 52 54 50 39 26 21 20 19 18 18 20 24 30 34 36 39 42 45 48 51 52 53 56 61 64 68 70 69 68 67 67 68 68 69 68 69 68 68 67 65 66
30 29 28 27 27 27 27 27 27 27 27 27 26 27 27 27 26 26 26 26 27 27 27 28 28 28 27 27 27 29 31 32 34 35 36 38 40 41 40 39 39 41 42 44 46 47 48 49 51 51 46 34 24 20 20 19 18 18 20 24 30 33 36 39 42 45 48 50 52 54 57 60 64 68 70 70 69 67 67 69 69 69 70 70 70 69 68 68
31 30 29 28 28 28 28 28 27 27 27 27 27 27 27 27 27 27 26 27 26 27 27 28 28 28 28 27 27 28 29 31 33 34 35 37 38 40 40 38 37 38 39 41 43 44 45 46 48 48 47 42 32 22 20 19 19 18 18 20 25 29 34 37 40 44 47 49 51 53 55 58 60 64 68 71 71 69 68 68 70 71 71 72 72 71 71 70
31 30 30 29 28 28 28 28 28 28 28 28 28 27 27 27 28 27 27 27 26 27 27 28 29 28 28 27 26 27 28 30 32 33 34 35 37 38 39 38 36 36 37 38 40 41 42 43 44 45 45 44 40 31 22 19 19 19 19 19 21 25 29 33 38 43 46 48 50 52 55 56 57 60 65 70 72 71 70 70 70 72 73 74 74 73 73 73
31 31 30 30 29 29 29 29 29 29 29 29 29 28 28 28 28 28 28 27 27 27 27 28 29 28 28 27 26 26 27 28 30 32 33 34 35 36 38 38 36 34 34 36 37 38 39 41 41 42 42 41 40 37 31 22 18 19 19 19 19 21 23 28 34 39 43 46 48 51 55 56 55 57 61 66 70 72 71 72 72 73 74 75 75 75 75 75
32 31 31 31 30 30 30 30 30 30 30 29 29 29 29 29 29 29 28 28 27 27 27 28 28 28 28 27 26 26 26 27 29 30 32 33 34 35 36 36 36 35 33 34 35 36 37 38 39 39 40 39 38 37 35 30 24 18 19 20 20 21 21 23 28 33 38 44 47 51 55 56 55 55 57 60 66 71 72 73 74 75 75 76 76 77 78 77
33 32 32 32 32 31 31 31 31 31 31 31 30 31 31 30 30 30 29 29 27 27 28 28 28 28 28 27 26 26 26 26 28 29 30 32 33 34 35 35 35 34 33 32 33 34 35 36 36 37 38 38 36 35 33 32 29 25 20 18 19 22 24 24 25 28 32 38 43 48 54 57 55 56 57 57 62 67 71 74 76 76 77 78 78 79 79 79
34 34 33 33 33 33 33 33 33 33 33 32 32 32 32 32 31 31 31 30 28 28 28 28 28 28 28 27 27 26 25 25 26 28 29 30 32 33 33 34 34 34 32 31 31 32 32 33 34 35 37 37 36 34 32 30 28 27 24 21 19 17 20 23 26 29 31 34 37 41 50 55 53 55 58 58 60 63 66 71 75 77 78 79 80 80 81 81
36 36 35 35 34 34 34 34 35 35 34 34 34 34 34 34 33 33 33 31 29 28 28 28 28 27 27 28 28 27 26 25 26 27 27 29 30 31 32 33 33 33 32 31 30 29 30 30 31 33 34 35 36 35 33 31 28 26 24 22 21 19 17 17 18 21 25 29 33 38 46 52 51 52 55 57 59 62 64 67 71 75 78 80 81 80 81 82
38 38 37 36 36 36 36 36 37 37 36 36 36 36 36 35 35 35 34 34 31 28 28 28 27 27 27 28 29 28 27 26 25 26 27 27 28 30 31 32 32 31 31 31 29 28 28 28 29 30 31 33 34 34 33 31 29 27 25 22 20 19 18 17 16 16 16 16 19 27 38 47 46 43 47 54 59 62 64 66 69 71 75 78 81 82 82 83
40 40 39 38 37 37 37 38 39 39 38 38 38 38 38 37 37 36 36 36 32 29 29 28 28 28 28 29 29 29 28 26 25 25 26 26 27 28 29 30 31 30 30 29 29 28 27 27 27 28 29 30 31 31 32 31 30 28 27 25 23 21 19 18 17 16 16 14 12 15 23 29 25 18 27 42 53 59 62 64 67 70 73 76 79 83 84 85
42 42 41 40 40 39 40 40 41 41 41 40 40 40 40 40 39 38 37 37 34 31 31 30 29 29 29 28 28 29 28 27 26 26 26 25 26 27 28 29 29 30 29 28 28 28 27 27 26 27 27 28 29 29 29 29 29 29 28 26 25 23 21 21 20 19 18 17 15 14 17 19 15 12 13 18 29 42 54 61 65 68 71 75 79 84 86 87
45 44 44 43 42 41 41 42 43 43 42 42 42 42 42 41 40 39 38 37 35 34 33 31 30 29 28 28 29 29 29 28 27 26 26 26 25 26 26 27 28 28 29 28 28 27 27 27 27 27 27 27 28 28 28 27 27 28 28 27 26 24 23 23 23 21 21 21 19 17 17 17 12 13 17 13 12 17 29 44 58 67 72 76 79 83 86 89
48 47 46 45 45 44 44 44 44 44 44 44 44 44 44 43 42 41 39 37 38 36 33 32 31 29 29 29 29 29 29 29 28 27 26 26 25 25 26 26 27 27 27 28 28 27 27 27 27 27 27 27 27 27 27 26 26 26 26 27 26 25 24 24 24 23 23 22 23 21 19 17 14 15 18 17 15 15 13 18 30 45 58 70 77 81 85 88
48 49 49 49 48 47 46 46 47 47 46 45 46 45 45 46 44 42 39 39 40 38 34 34 33 31 30 30 30 30 29 29 29 28 27 26 25 25 25 26 26 26 26 27 27 27 27 27 27 27 27 27 26 26 26 25 25 24 25 26 26 26 24 24 24 23 22 23 25 25 21 20 19 19 19 18 16 16 14 12 14 20 28 40 54 66 76 83
44 46 48 50 50 50 49 49 49 49 48 48 48 47 47 47 46 43 41 41 41 39 37 36 36 34 32 31 30 30 30 29 29 28 27 27 26 25 25 25 26 26 26 26 26 27 27 27 27 27 27 27 26 26 25 25 25 24 24 24 25 26 25 24 24 23 22 21 23 26 24 22 22 21 21 19 18 18 17 17 18 17 18 21 28 38 53 68
45 45 45 46 48 49 50 51 51 51 51 50 50 49 48 47 46 45 44 43 42 41 39 38 38 36 34 32 31 31 31 29 29 29 28 27 26 26 25 25 26 26 26 25 25 26 27 27 27 26 27 27 27 26 25 25 25 24 23 23 23 25 26 26 25 25 24 20 20 25 25 26 27 23 22 21 20 21 22 23 23 22 23 24 25 28 34 47
47 46 45 43 44 46 48 50 52 52 52 51 50 50 48 46 46 46 45 44 43 42 40 39 39 38 35 33 32 32 31 30 29 29 29 27 26 26 25 25 25 25 25 25 25 25 26 27 28 27 26 27 27 27 26 26 25 25 24 24 23 24 25 26 25 27 27 22 18 21 23 25 29 26 22 21 21 22 24 24 25 25 27 29 31 33 33 36
47 47 46 46 46 46 46 47 49 51 52 51 51 50 48 46 46 46 45 44 43 42 41 40 40 39 36 34 33 33 32 31 30 29 29 28 27 26 26 25 24 25 25 25 25 24 24 26 28 27 26 26 27 27 28 27 26 26 25 25 24 24 24 25 25 26 28 26 20 20 21 24 28 26 24 24 24 24 26 26 27 28 30 32 35 37 38 39
47 48 48 49 49 48 47 46 47 49 50 50 51 49 48 47 47 46 45 43 42 42 41 40 40 39 37 35 34 34 32 31 30 29 29 29 28 27 27 25 24 24 25 25 25 24 24 24 27 28 27 26 26 26 27 28 27 27 27 27 26 25 25 25 25 26 28 28 24 22 24 26 28 25 24 25 25 25 27 29 29 30 31 33 35 38 41 43
46 46 47 48 48 49 49 47 46 47 47 48 47 47 46 46 45 45 44 43 42 41 40 39 40 40 38 36 35 34 34 32 31 30 29 29 29 29 28 26 25 24 24 25 25 25 24 22 25 27 28 27 25 25 26 27 28 28 28 27 27 27 26 25 26 27 28 29 28 26 26 28 28 26 24 23 24 26 29 30 29 28 30 32 33 36 40 44
45 45 45 45 46 47 48 48 46 45 45 45 45 45 45 44 44 44 43 43 42 41 40 39 39 40 39 37 36 35 35 33 31 31 30 29 29 30 29 27 26 25 24 24 25 25 24 22 23 26 27 27 25 24 25 26 27 28 28 28 27 28 27 26 26 28 30 31 31 29 27 28 29 27 25 25 25 28 31 31 29 27 28 31 33 35 37 41
45 45 45 45 45 46 46 47 47 46 45 44 44 44 43 43 43 42 43 43 42 42 40 39 39 40 39 38 37 36 35 33 32 32 30 29 30 31 30 28 27 26 24 25 25 25 25 23 23 25 26 27 26 24 24 24 25 27 28 29 29 28 28 27 25 26 29 31 33 33 30 30 30 28 27 28 29 31 35 33 29 28 29 31 33 34 34 36
48 48 48 46 45 46 45 46 46 47 46 45 44 43 43 43 42 41 42 43 43 42 41 39 39 40 40 39 37 37 36 34 33 32 30 29 31 31 30 29 27 26 25 25 25 25 25 23 23 23 25 27 27 24 24 24 24 26 27 28 29 29 29 29 27 26 27 27 31 34 31 29 32 30 28 30 31 34 37 35 31 29 30 32 34 34 33 33
52 52 50 48 47 46 46 46 46 47 47 45 44 44 44 43 42 41 41 41 41 41 40 39 39 40 41 40 38 37 36 34 33 33 31 30 32 32 31 29 28 27 26 25 25 26 25 23 22 22 24 27 28 26 25 25 24 25 27 28 29 29 29 30 29 28 27 26 30 32 28 26 31 31 28 29 31 35 37 36 33 31 31 33 34 34 34 31
53 52 52 52 51 49 48 48 47 46 45 44 44 44 44 43 42 41 40 40 40 40 39 39 39 40 41 40 39 38 37 36 33 33 32 31 32 33 31 30 29 29 27 26 25 26 25 23 21 22 23 25 28 27 25 25 24 24 26 28 29 29 29 29 29 28 26 26 29 31 27 24 29 31 28 30 32 34 38 37 35 35 33 34 35 34 33 30
51 52 53 53 53 53 52 50 48 46 44 44 45 44 42 42 41 41 40 40 40 39 39 39 39 39 40 40 39 38 38 37 34 33 32 32 33 33 31 30 30 30 29 27 26 26 26 24 23 23 23 22 25 28 26 24 23 22 25 28 29 29 29 29 29 28 27 26 27 29 27 24 27 31 30 31 32 34 37 37 37 38 36 35 35 33 31 28
54 53 53 54 55 55 54 51 49 48 47 46 46 44 42 41 41 40 40 40 40 39 38 38 39 40 40 40 40 40 38 37 36 33 32 33 34 33 32 31 31 31 30 28 27 26 26 25 24 25 24 22 24 27 27 24 21 21 23 26 28 29 29 29 29 28 29 28 24 27 29 24 24 31 31 30 32 34 36 36 37 39 39 36 35 33 30 26
60 58 56 56 56 56 55 52 50 50 49 47 46 45 44 43 41 40 40 40 40 39 38 38 38 39 39 40 41 41 39 38 37 35 34 34 34 33 32 32 32 32 31 30 29 28 26 24 24 25 25 25 26 27 28 25 20 19 21 23 26 27 27 28 28 27 30 28 23 26 31 27 24 28 29 28 31 33 35 35 35 38 38 37 35 33 31 26
64 63 60 56 54 55 55 55 52 50 47 46 46 45 45 45 44 43 42 41 41 40 39 39 39 38 38 40 41 41 39 39 38 37 36 35 34 34 33 32 33 33 32 31 30 30 27 23 24 26 24 25 26 27 30 27 21 19 19 21 25 26 25 25 26 26 29 29 24 24 30 29 26 27 30 30 30 32 34 34 34 36 36 36 35 33 30 27
66 65 62 59 57 56 54 52 51 50 49 46 45 45 45 45 45 45 43 42 42 41 40 40 39 38 39 40 40 40 39 39 39 39 38 36 35 35 34 33 34 34 34 33 31 31 28 23 24 26 24 23 24 26 30 30 24 20 18 20 24 26 25 24 24 26 27 28 26 25 27 29 27 26 28 31 32 32 33 33 33 35 36 35 35 34 32 28
68 67 66 63 60 57 53 50 50 53 54 52 48 45 44 44 43 43 43 42 41 40 40 40 39 38 39 40 40 39 38 39 40 40 39 38 37 37 36 34 35 35 35 35 33 32 30 25 24 27 25 22 23 25 29 30 26 20 18 21 24 24 25 24 23 25 26 26 27 27 25 26 27 26 25 28 31 32 32 32 32 34 35 35 34 33 32 30
69 68 67 66 62 59 56 53 53 54 55 56 54 49 46 43 41 40 40 39 39 39 40 40 39 38 39 40 41 39 37 38 41 41 41 40 38 38 38 36 36 36 36 36 34 33 32 28 25 28 25 21 22 25 27 29 27 21 18 23 25 23 22 23 23 24 25 24 26 27 25 24 25 26 25 25 28 30 31 31 31 32 33 33 32 32 31 30
69 69 69 69 65 62 60 56 55 55 56 58 57 53 50 46 42 41 39 38 38 38 38 39 39 39 39 41 41 39 37 40 43 42 42 42 40 40 40 38 38 38 37 38 36 34 33 30 28 30 27 20 20 24 25 27 27 23 22 25 25 22 20 20 22 23 23 23 24 26 26 24 23 23 24 25 25 27 29 29 29 29 31 32 31 30 29 28
71 70 70 71 68 64 61 58 56 57 58 57 55 55 54 50 46 45 44 41 40 39 38 38 39 39 40 41 41 38 39 42 43 42 43 44 42 41 42 40 40 39 38 39 38 36 35 33 31 32 28 21 20 24 26 25 23 23 25 26 23 21 20 18 20 22 21 20 21 23 24 24 23 22 22 23 24 24 25 27 27 27 28 29 29 28 27 25
Wind_Direction
26 18 14 10 7 6 5 4 1 360 357 355 353 352 351 350 350 350 351 351 352 353 354 355 355 355 354 353 353 352 350 348 347 347 346 344 340 336 333 330 325 317 308 298 290 281 274 268 264 260 257 254 251 250 249 248 247 247 247 247 245 243 241 240 239 239 237 235 233 231 230 230 230 230 232 235 237 237 237 236 236 237 238 240 241 242 243 243
1 358 357 356 355 355 355 354 352 352 350 348 347 346 346 345 345 345 346 348 349 350 351 352 352 353 352 351 351 351 350 348 347 347 346 344 342 339 336 334 330 324 315 304 295 289 282 274 268 263 259 255 253 250 249 248 246 245 245 246 246 244 243 241 240 239 238 236 234 232 231 230 230 229 231 233 235 236 236 236 236 236 236 238 240 241 242 242
344 344 346 345 345 345 345 345 344 344 343 342 341 340 340 340 340 339 341 343 345 346 347 349 349 350 350 350 349 349 349 348 348 347 346 345 344 342 339 336 333 328 321 311 300 292 287 280 272 265 261 257 254 251 249 248 247 245 244 244 244 244 244 242 241 239 238 237 235 233 231 231 230 229 230 231 232 234 235 235 235 235 235 236 238 239 241 242
333 335 337 337 337 337 337 337 336 337 336 336 335 335 335 336 336 336 337 339 341 342 343 345 346 347 347 348 348 348 348 348 348 347 347 346 345 344 342 338 335 331 325 316 306 296 289 284 276 267 261 258 254 251 249 248 247 246 244 243 241 241 242 242 242 241 239 237 236 234 232 231 230 229 229 230 231 233 234 235 234 234 235 235 236 238 239 241
325 327 328 330 330 329 329 330 330 331 332 332 332 332 332 333 334 335 335 336 338 339 341 342 344 345 345 345 346 346 346 347 347 347 346 346 345 344 343 340 337 334 329 322 313 303 294 286 278 269 260 256 253 251 248 247 247 246 244 243 241 239 239 241 241 241 240 239 237 235 233 233 231 229 229 229 230 232 233 234 234 233 233 234 235 236 237 239
319 321 322 322 323 323 324 325 325 327 328 328 329 328 329 330 331 332 332 333 335 337 339 340 341 342 343 343 344 344 345 346 345 346 346 346 346 345 344 342 339 336 332 327 320 312 303 291 280 270 260 253 251 250 248 246 246 245 244 242 241 239 237 237 238 239 240 240 238 236 234 234 233 231 229 229 230 231 232 233 234 233 233 233 234 235 235 237
311 314 315 316 317 319 320 320 321 322 322 322 323 323 324 325 327 328 328 330 332 334 336 338 339 340 340 341 342 343 344 345 344 345 345 346 347 347 346 344 341 338 336 332 328 322 313 299 285 273 261 252 248 248 247 245 245 244 243 242 240 239 238 236 236 236 237 238 238 237 235 234 234 232 230 229 229 230 231 232 233 233 233 233 234 234 234 236
305 307 309 311 312 314 314 314 315 315 315 316 316 317 319 321 322 324 325 327 329 331 333 335 337 338 339 340 341 342 343 343 343 343 344 346 347 348 348 346 343 340 339 338 336 332 324 311 295 279 265 253 246 245 245 244 244 243 242 241 240 238 238 237 236 234 234 235 236 236 235 234 234 233 231 230 230 230 231 232 233 233 233 233 234 235 235 236
302 303 304 305 306 307 307 307 308 308 310 311 312 313 315 318 319 322 323 325 327 329 331 333 335 336 337 338 340 341 342 342 342 342 344 345 347 349 349 347 345 342 341 343 342 340 334 322 306 288 271 257 247 244 243 243 242 242 242 241 240 238 237 237 237 235 234 233 233 234 234 234 233 233 231 230 230 230 230 231 232 233 234 233 234 236 235 236
300 301 301 301 301 301 302 302 303 304 306 308 309 311 314 316 318 320 322 323 325 327 329 330 333 334 335 337 338 340 340 340 341 342 343 345 347 350 351 349 347 344 344 347 348 346 342 331 316 300 281 264 252 245 243 242 242 241 241 241 240 239 237 236 236 236 235 233 233 232 232 232 232 231 231 230 231 230 230 230 231 232 233 232 232 235 237 237
297 298 298 298 298 298 298 299 300 302 304 306 307 309 313 315 316 318 319 321 322 324 326 328 331 331 332 335 336 338 339 339 340 341 342 345 348 351 352 351 349 346 347 350 351 351 347 337 324 309 294 276 260 249 244 242 241 241 240 240 240 240 238 236 235 235 236 235 234 232 231 230 230 230 229 230 230 231 230 230 230 231 231 230 227 229 236 237
295 295 295 296 296 296 296 297 298 300 302 303 305 307 309 312 313 315 316 318 319 321 323 325 328 329 330 333 334 336 337 338 339 340 341 345 348 351 353 353 351 349 350 352 354 356 352 343 330 316 304 290 271 256 248 243 241 241 240 239 239 240 240 238 236 235 235 236 235 234 232 230 229 229 228 228 229 230 230 230 230 230 231 229 225 225 230 235
293 293 294 294 295 295 295 295 296 297 299 301 303 304 306 308 309 311 312 314 316 319 321 323 326 328 328 330 332 334 336 338 338 339 341 345 348 351 354 355 353 352 353 354 356 359 358 350 336 321 311 302 286 267 254 247 242 241 240 239 238 239 240 240 238 236 235 235 236 236 234 230 229 229 228 228 228 229 230 230 229 229 230 229 226 225 226 233
291 291 292 292 293 293 293 294 295 296 296 298 299 301 302 304 306 307 310 312 314 316 318 321 324 326 326 328 330 332 335 337 338 339 342 345 347 351 355 356 356 354 355 356 358 2 3 357 345 328 316 309 298 281 264 253 246 242 240 239 237 237 239 240 240 238 236 236 235 236 235 231 229 230 228 228 227 227 228 229 229 228 229 229 226 224 222 226
289 289 290 290 291 291 292 293 293 294 294 295 296 298 299 301 302 304 307 310 312 314 316 318 322 324 324 326 329 330 333 335 337 340 342 345 347 350 355 357 357 357 357 357 360 4 6 4 355 338 322 314 306 293 276 262 251 245 241 239 237 236 238 239 240 240 239 238 236 237 236 232 230 231 229 228 227 226 227 228 228 227 227 228 226 224 221 222
286 287 287 288 288 289 290 291 292 292 293 293 294 295 297 298 299 301 304 307 309 311 314 316 319 321 322 325 327 328 331 334 337 340 343 345 347 350 354 358 359 359 360 359 1 6 9 9 4 351 333 319 314 303 289 275 261 251 245 241 239 236 237 238 239 240 241 241 239 238 237 233 232 232 231 230 228 227 226 227 228 228 227 227 227 224 221 223
283 283 284 285 286 287 288 289 290 291 291 292 292 293 294 295 297 298 301 303 306 308 311 313 316 319 321 324 326 327 329 333 336 340 343 344 346 350 354 358 0 1 1 1 2 7 12 13 11 3 348 328 319 313 302 289 274 260 250 245 242 238 237 238 238 239 241 242 242 240 238 234 233 233 232 232 229 227 226 226 227 229 228 227 227 225 222 222
282 281 280 281 283 284 285 286 287 289 289 290 290 290 291 293 294 295 297 299 302 305 307 310 313 317 320 322 324 325 328 332 335 339 342 343 346 349 353 358 1 3 3 2 3 9 13 15 15 12 3 344 324 318 312 302 289 273 258 249 245 241 239 239 239 239 240 241 242 243 240 237 235 235 234 233 232 229 227 226 227 228 229 228 226 225 224 222
282 281 280 280 280 281 282 283 285 286 287 287 288 288 289 291 292 293 295 297 299 302 304 307 310 315 318 321 323 324 327 331 334 337 341 343 345 348 352 357 1 4 5 3 4 8 13 15 16 16 13 2 341 321 315 311 302 289 273 258 251 246 242 240 240 240 239 240 241 242 242 239 237 236 235 234 233 231 228 227 226 227 229 229 228 226 224 223
281 281 280 280 280 280 281 282 284 285 285 285 286 286 287 289 290 291 293 294 296 299 302 305 308 312 316 319 321 323 326 330 332 335 339 342 345 347 351 357 1 4 5 5 5 7 11 15 16 17 17 14 3 341 320 312 309 302 289 274 261 253 248 244 242 241 240 240 240 241 242 240 238 237 237 236 234 232 230 228 227 227 228 229 229 227 225 224
279 279 279 279 278 278 278 280 282 282 283 284 285 285 286 287 288 290 291 293 295 298 301 303 305 309 313 316 319 322 325 328 331 334 337 341 344 346 350 355 0 3 5 6 5 6 9 12 15 16 17 18 16 6 345 320 308 305 301 292 278 265 257 252 249 246 244 243 242 243 243 241 240 239 238 238 236 233 232 230 228 227 227 228 229 228 227 226
278 278 278 277 277 276 276 277 278 279 280 282 283 284 285 286 288 290 291 292 295 297 299 301 303 306 310 313 316 320 323 327 330 332 335 339 343 345 348 353 359 2 4 6 6 6 8 10 13 14 16 18 19 17 10 352 324 306 300 297 292 283 271 262 257 254 251 248 246 246 246 243 242 241 240 240 238 235 234 232 230 228 227 227 228 229 228 227
277 277 277 277 276 276 275 275 276 277 278 280 281 282 284 285 287 288 290 292 294 295 297 298 301 304 307 311 315 318 321 325 328 330 334 337 341 344 346 351 357 1 4 6 6 7 8 10 11 12 14 15 17 19 18 14 2 337 311 297 292 289 282 273 266 263 259 256 251 249 248 245 244 244 242 242 241 238 236 235 232 230 229 228 228 229 229 228
276 276 276 276 276 276 275 275 275 276 277 278 279 280 282 283 284 286 288 290 292 294 296 297 299 302 305 308 312 315 318 322 325 328 332 335 339 342 345 349 355 0 4 6 7 8 10 11 12 13 14 14 15 17 18 18 17 11 354 327 305 291 283 278 273 269 267 264 260 256 253 247 245 245 244 243 243 240 238 237 235 232 231 229 229 229 229 229
275 275 275 275 275 275 274 274 275 275 276 277 278 279 281 282 283 284 286 288 291 293 294 296 298 300 302 306 309 312 315 319 322 325 329 333 337 340 343 346 352 358 2 5 8 9 12 13 14 16 16 15 14 14 14 15 16 17 15 7 353 330 306 290 281 274 270 269 268 267 262 254 247 247 246 245 246 244 240 238 236 235 233 231 230 230 230 230
273 274 274 274 274 274 273 273 274 274 275 276 277 279 280 281 282 283 285 287 290 292 293 295 297 299 301 303 306 309 312 316 320 322 326 330 334 338 341 344 348 354 359 3 6 9 11 13 14 15 17 17 15 14 13 12 11 11 11 12 10 5 354 333 313 296 284 277 272 271 271 265 255 249 248 248 247 246 244 241 238 236 235 234 232 230 231 231
271 272 272 273 273 273 273 272 272 273 274 275 276 277 278 280 281 283 285 287 289 291 292 293 295 298 300 302 303 306 309 314 316 319 323 327 332 336 340 342 345 350 355 359 2 5 9 9 10 12 13 14 15 14 14 12 11 8 5 5 3 3 1 356 349 337 325 311 290 277 274 274 270 259 252 251 249 247 246 244 241 238 236 236 234 232 232 231
269 269 270 271 271 271 271 271 272 272 273 275 276 276 277 278 280 282 284 285 288 291 291 292 293 296 298 300 301 303 306 310 313 315 319 323 328 333 337 340 342 346 350 354 358 1 5 6 6 7 8 9 11 11 12 12 12 10 6 2 358 355 352 349 348 344 342 340 322 298 288 293 301 289 260 253 251 250 249 248 246 243 239 237 236 234 233 231
268 268 268 268 269 269 270 270 271 272 273 274 275 276 277 278 279 280 282 284 287 288 289 290 292 293 296 297 299 301 303 307 310 312 315 319 324 329 334 338 340 343 346 350 353 355 359 2 2 4 3 4 6 7 8 9 10 10 9 6 1 355 349 345 343 340 339 336 328 319 314 320 338 342 307 271 256 251 249 248 247 246 243 240 237 235 234 233
267 267 267 267 267 267 268 269 269 270 272 273 274 275 276 277 278 279 281 283 285 285 287 289 290 291 293 295 297 298 300 303 306 309 312 315 320 325 330 334 337 340 343 346 349 350 354 357 359 0 1 1 1 2 4 6 7 8 8 8 6 2 354 347 344 338 334 333 329 325 324 328 334 335 329 319 296 271 253 247 245 245 245 244 240 237 235 234
266 266 267 266 266 266 266 267 268 269 270 271 272 273 274 275 276 278 280 282 282 283 285 286 287 289 291 293 295 296 297 300 303 306 308 311 315 320 325 329 333 337 340 343 346 347 350 353 355 356 357 359 359 359 360 2 4 5 6 6 6 7 1 354 352 345 336 330 325 323 320 319 324 327 323 316 311 305 289 266 253 249 247 247 245 242 239 236
270 267 266 266 265 265 265 265 267 268 268 269 270 271 272 274 275 277 279 280 280 281 283 283 284 286 288 290 292 293 294 296 299 302 304 307 310 314 320 324 328 333 337 341 343 345 347 350 352 353 354 357 358 358 358 359 2 3 3 3 2 6 5 360 358 354 345 334 325 325 323 315 315 317 319 322 316 305 298 291 279 267 257 251 249 247 244 242
273 272 270 268 266 266 266 266 267 267 267 268 269 270 272 274 276 278 278 277 278 280 281 281 282 283 285 287 289 290 291 293 295 298 300 303 306 309 314 318 322 327 333 337 340 342 344 346 349 351 351 354 357 359 358 358 359 0 1 1 358 360 2 1 1 0 356 343 328 330 333 327 326 320 313 316 312 307 305 296 287 278 270 261 252 247 244 242
271 273 273 271 270 269 268 267 267 268 268 269 270 272 273 276 278 278 277 276 277 278 278 279 279 280 282 284 286 287 288 290 291 294 296 299 302 304 308 313 317 322 327 333 337 339 341 342 345 349 349 350 353 356 358 357 357 358 358 358 357 356 357 357 358 358 2 358 337 335 338 334 335 331 319 315 308 305 307 303 296 286 277 272 264 257 249 243
267 269 271 271 272 272 271 270 269 268 269 270 271 273 275 276 277 278 278 277 276 277 276 276 277 277 279 280 283 284 286 287 288 290 293 295 297 300 303 307 312 316 321 327 332 336 339 339 341 345 347 347 349 350 354 355 355 356 356 356 355 354 354 355 355 353 358 4 353 344 340 333 334 333 323 320 316 311 310 305 298 291 285 280 274 269 264 256
265 266 268 269 270 271 273 273 272 269 268 269 270 272 274 275 276 277 278 277 275 275 275 274 274 275 275 277 279 281 282 284 286 287 289 292 294 296 299 302 306 311 315 321 326 332 337 337 337 341 344 345 346 347 348 350 352 353 354 355 355 352 351 352 353 350 351 359 4 357 347 339 340 338 328 322 319 316 315 310 303 296 288 284 280 276 271 265
264 265 267 267 268 269 271 273 273 271 269 269 270 272 273 274 274 275 276 275 274 273 273 273 272 272 273 274 275 278 280 281 283 285 286 288 291 292 295 298 302 305 310 314 319 325 332 335 334 336 342 343 344 345 345 346 348 350 351 352 354 353 351 349 350 350 350 354 4 2 349 347 352 347 335 328 324 322 322 318 310 301 292 286 282 277 273 268
264 266 267 267 267 268 269 270 272 272 270 270 270 271 272 273 273 273 274 274 273 272 272 272 271 271 270 271 272 273 276 278 280 282 283 285 287 289 292 295 297 300 304 308 313 317 324 331 330 332 337 340 343 345 343 343 344 345 347 349 352 353 352 351 348 346 348 349 359 5 352 348 354 351 345 342 335 330 329 326 320 310 301 295 287 278 271 267
263 265 266 266 267 268 268 268 269 270 269 269 270 271 272 272 271 270 271 273 272 270 271 271 270 269 268 268 268 270 272 275 277 279 280 282 283 285 288 292 294 296 299 303 307 311 317 324 326 327 331 335 340 344 342 342 342 342 343 345 348 350 351 354 350 343 343 343 349 360 356 349 352 352 351 351 345 338 335 332 327 320 312 305 298 288 277 268
261 264 264 265 266 267 268 266 265 266 266 267 268 269 270 270 269 269 269 270 270 269 269 270 269 268 266 265 265 267 269 272 274 276 278 280 280 282 285 288 290 292 294 297 301 305 310 317 320 321 325 329 336 341 342 341 341 340 341 341 345 347 348 353 353 344 342 340 340 350 354 350 351 352 351 351 348 344 342 339 333 325 319 315 310 302 288 274
259 261 263 265 267 267 267 266 264 263 264 264 266 267 268 269 268 267 267 267 267 267 268 269 268 266 264 263 262 263 266 268 271 273 276 277 277 279 282 284 286 288 290 292 296 299 304 311 315 317 319 323 328 336 339 341 341 339 339 340 343 345 344 349 354 350 346 341 337 344 352 351 350 351 350 349 349 346 344 342 337 331 325 323 321 314 302 284
258 259 261 264 266 267 267 266 265 264 264 264 266 267 267 267 267 266 265 265 265 266 267 268 266 263 262 261 260 260 263 264 267 271 273 274 275 276 279 281 283 284 285 288 291 294 298 304 309 311 314 316 320 328 333 336 340 339 337 339 341 343 344 346 350 352 351 345 338 343 354 351 347 350 348 346 348 347 345 344 342 339 333 329 328 322 313 298
261 261 261 262 264 265 265 265 265 266 266 266 266 265 265 266 266 266 265 264 264 264 265 265 264 262 260 259 258 258 260 262 263 267 270 272 273 274 276 279 280 281 282 284 287 290 294 299 303 304 307 310 312 319 326 331 336 337 334 336 340 342 344 345 347 349 351 348 338 343 358 353 344 348 348 346 349 348 347 347 345 344 341 336 334 330 321 310
264 263 261 260 261 262 262 264 266 269 269 267 265 264 264 265 265 265 264 263 263 262 262 263 262 260 258 258 257 257 258 260 261 262 266 269 270 273 275 277 278 278 280 281 283 286 290 294 298 298 300 303 305 310 318 324 331 334 331 333 336 339 342 344 346 345 348 351 340 339 357 358 342 347 351 348 352 353 350 350 348 347 347 342 338 337 332 320
263 263 261 260 259 259 261 264 267 268 268 268 266 264 264 265 265 265 263 262 261 261 261 261 260 258 257 257 257 256 256 258 259 260 262 265 268 271 274 275 276 276 278 280 280 282 286 290 294 294 297 300 299 303 310 316 326 330 328 329 331 334 338 342 346 342 341 351 347 336 350 1 347 348 355 353 353 355 353 352 351 350 349 348 344 342 341 333
265 263 261 261 261 261 262 264 266 267 268 269 268 265 264 265 265 264 263 261 260 260 259 260 259 257 256 256 256 256 256 257 258 259 260 262 265 269 271 273 274 275 276 278 279 279 282 287 289 289 293 298 298 300 304 310 321 325 323 324 325 329 334 339 346 341 336 347 352 334 341 358 358 352 356 357 355 356 357 355 354 354 352 351 350 348 348 346
266 265 262 262 264 263 262 262 263 266 268 270 270 267 265 264 264 263 262 261 260 259 258 258 258 256 254 254 255 255 256 257 258 259 259 261 263 266 269 271 273 274 274 275 276 278 280 283 284 285 288 292 295 298 300 305 316 320 320 319 319 324 332 337 342 339 334 342 350 339 338 351 0 357 355 358 359 359 360 358 357 357 357 357 357 356 356 359
265 266 265 263 262 261 261 263 264 264 265 267 268 266 265 264 263 262 262 261 259 259 258 257 256 255 253 252 253 254 256 257 257 258 260 261 262 264 266 269 271 273 274 273 274 275 278 280 280 281 284 286 289 293 295 300 308 315 318 316 313 318 325 333 337 334 333 338 343 345 344 346 355 358 354 356 0 1 2 1 359 360 1 3 4 4 5 8
265 264 265 265 263 261 262 264 263 261 260 261 263 263 263 263 263 262 261 261 261 260 259 256 256 256 253 252 253 254 255 257 258 258 259 261 262 263 264 266 269 272 273 273 273 274 276 277 277 278 279 281 284 286 289 295 301 310 316 310 308 312 318 325 330 329 332 339 340 344 348 346 350 356 357 357 359 1 3 2 0 1 3 7 9 10 12 16
264 265 266 267 266 263 261 260 261 260 259 258 258 259 261 262 264 266 265 264 263 261 259 257 257 256 254 252 252 253 255 256 256 256 257 259 260 262 263 264 267 270 272 273 273 273 274 275 274 275 277 279 280 280 284 291 297 306 311 303 301 307 310 316 321 322 329 338 339 341 348 349 349 352 356 360 1 3 5 4 2 2 4 9 12 15 18 22
260 262 264 265 264 264 261 259 259 260 259 257 256 257 260 263 266 268 268 265 264 263 261 259 258 257 256 254 253 254 256 255 253 255 257 258 258 259 261 263 264 267 269 272 273 272 273 274 273 273 276 277 276 276 279 286 295 304 302 295 295 300 303 308 313 315 324 335 336 338 343 348 352 353 353 357 2 5 6 5 4 2 4 8 14 18 22 28
257 257 259 262 263 263 262 260 258 258 258 258 258 257 259 262 264 265 266 266 266 266 265 262 260 258 256 255 255 257 257 254 253 255 257 258 258 258 259 260 261 264 266 269 272 272 272 273 273 273 275 275 274 275 275 281 294 300 295 291 293 295 298 304 307 308 317 328 332 336 339 342 348 353 354 356 360 4 8 8 6 4 3 6 13 18 24 31
Height
5806 5805 5805 5804 5803 5802 5802 5801 5800 5799 5797 5796 5795 5794 5793 5792 5791 5789 5788 5786 5784 5783 5781 5779 5777 5775 5773 5771 5770 5768 5766 5764 5762 5760 5758 5756 5754 5752 5749 5746 5743 5739 5735 5730 5727 5724 5721 5718 5716 5715 5715 5715 5716 5718 5717 5717 5718 5718 5719 5720 5725 5732 5735 5738 5739 5740 5744 5747 5750 5754 5756 5757 5759 5761 5762 5764 5766 5769 5772 5776 5779 5783 5787 5789 5792 5794 5796 5798
5805 5804 5803 5803 5802 5801 5800 5799 5798 5797 5796 5795 5794 5793 5792 5790 5789 5787 5786 5784 5782 5781 5779 5777 5775 5773 5771 5769 5767 5765 5763 5761 5759 5757 5755 5752 5750 5747 5744 5741 5738 5734 5730 5725 5720 5717 5714 5711 5708 5706 5705 5705 5706 5707 5707 5707 5708 5709 5709 5712 5719 5726 5728 5730 5730 5732 5736 5738 5742 5746 5748 5750 5753 5755 5756 5758 5760 5762 5766 5770 5773 5778 5781 5784 5786 5789 5791 5793
5803 5802 5802 5801 5800 5799 5799 5798 5797 5796 5795 5794 5793 5792 5790 5789 5788 5786 5784 5783 5781 5779 5777 5775 5773 5771 5768 5766 5764 5762 5760 5757 5755 5753 5750 5748 5745 5742 5738 5735 5731 5727 5723 5719 5714 5709 5705 5702 5700 5698 5696 5695 5695 5696 5696 5696 5698 5699 5700 5703 5712 5718 5719 5720 5722 5724 5728 5731 5735 5738 5741 5743 5746 5749 5750 5752 5754 5756 5759 5763 5767 5771 5775 5778 5781 5783 5786 5789
5802 5801 5800 5799 5799 5798 5797 5796 5795 5795 5794 5793 5791 5790 5789 5787 5786 5784 5782 5780 5779 5777 5774 5772 5770 5768 5766 5763 5761 5759 5757 5754 5752 5749 5746 5743 5740 5737 5733 5729 5724 5721 5716 5711 5706 5701 5696 5693 5690 5688 5686 5685 5685 5685 5685 5685 5687 5689 5691 5696 5703 5708 5709 5711 5714 5717 5720 5724 5727 5731 5734 5736 5738 5742 5744 5746 5748 5750 5753 5757 5761 5765 5769 5772 5775 5778 5782 5784
5800 5800 5799 5798 5797 5796 5796 5795 5794 5793 5792 5791 5790 5788 5787 5785 5784 5782 5780 5778 5776 5774 5772 5770 5768 5765 5763 5761 5759 5756 5754 5751 5749 5746 5743 5740 5736 5732 5728 5724 5719 5715 5710 5704 5698 5692 5687 5682 5679 5676 5675 5675 5674 5674 5675 5675 5676 5678 5683 5689 5693 5697 5699 5702 5707 5710 5713 5717 5721 5725 5728 5729 5732 5735 5737 5740 5742 5745 5748 5750 5754 5759 5763 5766 5769 5773 5777 5779
5799 5798 5798 5797 5796 5795 5794 5793 5792 5791 5790 5789 5788 5786 5785 5783 5782 5780 5778 5776 5775 5773 5770 5768 5766 5764 5761 5759 5757 5754 5751 5748 5746 5743 5740 5736 5732 5728 5723 5718 5713 5709 5704 5697 5690 5683 5677 5671 5667 5664 5663 5664 5664 5664 5665 5665 5666 5669 5673 5678 5683 5687 5690 5693 5697 5701 5705 5710 5713 5717 5721 5723 5726 5729 5732 5735 5737 5740 5742 5744 5748 5752 5756 5760 5763 5767 5771 5774
5798 5797 5796 5796 5795 5794 5793 5792 5791 5790 5789 5788 5787 5785 5783 5782 5780 5778 5777 5775 5773 5771 5769 5767 5765 5762 5759 5757 5754 5752 5749 5746 5742 5739 5736 5732 5728 5723 5718 5713 5708 5703 5697 5690 5682 5674 5666 5659 5655 5651 5651 5652 5653 5654 5654 5656 5658 5660 5664 5668 5673 5678 5681 5684 5687 5691 5696 5701 5705 5710 5714 5717 5719 5722 5726 5729 5732 5734 5736 5739 5742 5746 5750 5754 5758 5762 5767 5770
5797 5796 5795 5794 5794 5793 5792 5791 5789 5788 5787 5786 5785 5783 5782 5780 5779 5777 5775 5773 5772 5770 5768 5766 5763 5761 5758 5755 5752 5749 5746 5743 5740 5736 5733 5729 5724 5720 5714 5709 5703 5696 5691 5683 5674 5665 5656 5649 5644 5640 5640 5640 5642 5644 5645 5647 5650 5652 5655 5658 5663 5669 5673 5676 5678 5682 5686 5691 5696 5701 5706 5709 5712 5716 5720 5724 5726 5728 5730 5733 5736 5740 5744 5748 5753 5757 5763 5765
5795 5794 5793 5793 5792 5791 5790 5789 5788 5787 5786 5784 5783 5782 5780 5779 5777 5775 5774 5772 5770 5768 5766 5764 5761 5759 5756 5753 5750 5747 5744 5741 5738 5734 5730 5726 5721 5716 5711 5705 5699 5692 5685 5676 5667 5658 5648 5640 5635 5631 5630 5630 5632 5635 5636 5639 5641 5643 5647 5650 5654 5659 5663 5667 5671 5674 5677 5682 5686 5691 5697 5701 5704 5708 5714 5718 5720 5722 5725 5728 5731 5735 5738 5744 5750 5754 5757 5759
5793 5792 5792 5791 5790 5789 5788 5787 5786 5785 5784 5783 5781 5780 5779 5777 5775 5774 5772 5770 5768 5766 5764 5762 5759 5757 5754 5751 5748 5745 5743 5739 5736 5732 5728 5724 5718 5712 5707 5701 5695 5688 5680 5670 5661 5651 5642 5634 5628 5625 5623 5623 5624 5626 5628 5630 5633 5637 5640 5644 5648 5651 5655 5658 5663 5667 5670 5675 5678 5682 5687 5690 5695 5701 5708 5712 5714 5716 5719 5722 5725 5729 5733 5740 5746 5749 5752 5755
5791 5790 5789 5789 5788 5787 5786 5785 5784 5783 5782 5781 5779 5778 5777 5775 5773 5771 5770 5768 5766 5764 5761 5759 5757 5755 5752 5749 5746 5743 5741 5738 5734 5730 5725 5721 5715 5708 5703 5697 5691 5684 5675 5666 5657 5647 5637 5630 5624 5621 5619 5618 5619 5620 5621 5624 5627 5630 5633 5638 5641 5644 5647 5651 5656 5659 5664 5668 5670 5673 5677 5680 5687 5694 5701 5706 5707 5710 5713 5716 5720 5723 5728 5734 5740 5743 5745 5749
5789 5788 5787 5787 5786 5785 5784 5783 5782 5780 5779 5778 5777 5776 5774 5773 5771 5769 5767 5766 5764 5762 5759 5757 5755 5753 5750 5747 5745 5742 5739 5735 5732 5728 5724 5719 5713 5707 5701 5695 5688 5681 5672 5663 5655 5645 5635 5627 5622 5618 5616 5615 5615 5615 5616 5618 5621 5624 5627 5632 5636 5638 5641 5644 5648 5652 5657 5661 5662 5665 5668 5673 5682 5688 5695 5699 5700 5703 5706 5710 5714 5718 5722 5727 5733 5737 5739 5742
5787 5786 5785 5784 5783 5783 5781 5780 5779 5778 5777 5776 5774 5773 5772 5771 5769 5767 5765 5763 5761 5760 5757 5755 5753 5751 5748 5746 5743 5740 5737 5733 5730 5726 5721 5716 5711 5705 5699 5692 5686 5678 5670 5661 5653 5644 5635 5627 5621 5617 5615 5613 5612 5612 5612 5614 5617 5619 5622 5626 5630 5633 5635 5638 5642 5645 5650 5652 5655 5659 5661 5670 5679 5682 5688 5690 5693 5697 5700 5704 5708 5712 5716 5721 5726 5730 5734 5736
5784 5783 5783 5782 5781 5780 5779 5778 5777 5775 5774 5773 5772 5770 5769 5768 5766 5765 5763 5761 5759 5757 5755 5753 5751 5749 5746 5744 5741 5738 5735 5731 5727 5723 5719 5713 5708 5703 5696 5689 5683 5676 5668 5661 5653 5644 5635 5627 5620 5616 5614 5612 5611 5610 5610 5611 5613 5615 5617 5621 5625 5628 5629 5633 5636 5640 5643 5644 5649 5652 5655 5666 5673 5674 5679 5682 5685 5690 5693 5697 5701 5706 5710 5714 5720 5723 5728 5732
5781 5781 5780 5779 5778 5777 5776 5775 5774 5773 5772 5770 5769 5768 5766 5765 5764 5762 5760 5759 5757 5755 5753 5751 5749 5747 5744 5741 5739 5736 5732 5729 5726 5721 5716 5711 5706 5700 5693 5687 5681 5674 5667 5660 5652 5644 5636 5628 5621 5616 5613 5612 5610 5609 5608 5608 5610 5611 5614 5617 5620 5623 5624 5627 5631 5634 5637 5639 5643 5646 5649 5661 5666 5667 5671 5674 5678 5682 5686 5690 5694 5699 5703 5707 5712 5717 5721 5725
5778 5777 5777 5776 5775 5774 5773 5771 5771 5770 5769 5768 5766 5765 5764 5762 5761 5759 5758 5756 5754 5752 5750 5748 5746 5744 5742 5739 5736 5733 5730 5727 5723 5719 5715 5710 5705 5699 5692 5686 5680 5673 5666 5660 5652 5644 5637 5630 5622 5617 5613 5611 5610 5608 5607 5607 5608 5609 5611 5613 5615 5619 5620 5622 5626 5629 5632 5634 5638 5640 5644 5654 5659 5661 5664 5667 5672 5676 5681 5685 5688 5692 5696 5701 5706 5711 5715 5718
5775 5774 5773 5772 5772 5770 5769 5768 5768 5767 5766 5765 5764 5762 5761 5760 5758 5756 5755 5753 5752 5750 5748 5746 5744 5742 5740 5737 5734 5731 5728 5725 5721 5717 5713 5709 5704 5699 5692 5685 5679 5672 5666 5660 5653 5645 5638 5632 5625 5619 5614 5611 5610 5608 5607 5606 5607 5607 5608 5610 5612 5615 5616 5619 5622 5624 5627 5629 5633 5635 5639 5648 5652 5654 5658 5661 5665 5670 5675 5680 5682 5686 5691 5696 5700 5705 5710 5712
5771 5771 5770 5769 5768 5767 5766 5765 5764 5764 5763 5762 5761 5759 5758 5757 5755 5753 5752 5751 5749 5747 5745 5743 5741 5739 5737 5735 5732 5729 5726 5723 5719 5715 5711 5707 5703 5698 5692 5685 5678 5672 5666 5660 5654 5647 5640 5634 5628 5621 5615 5612 5610 5609 5608 5607 5606 5606 5606 5607 5609 5611 5613 5615 5617 5619 5622 5624 5627 5629 5634 5641 5644 5647 5652 5654 5658 5664 5669 5673 5677 5681 5685 5689 5694 5698 5703 5706
5768 5767 5766 5765 5764 5763 5762 5761 5761 5760 5759 5758 5757 5756 5755 5754 5752 5751 5749 5748 5746 5745 5743 5741 5738 5737 5735 5732 5730 5727 5724 5720 5717 5713 5710 5706 5701 5697 5691 5685 5678 5672 5666 5661 5655 5648 5642 5636 5630 5624 5618 5613 5610 5609 5608 5607 5606 5606 5606 5606 5607 5609 5610 5612 5613 5614 5616 5618 5621 5623 5627 5633 5637 5640 5644 5647 5651 5658 5663 5668 5672 5675 5678 5682 5686 5691 5695 5699
5765 5764 5763 5762 5761 5760 5759 5758 5758 5757 5756 5755 5754 5753 5752 5751 5749 5748 5746 5745 5743 5742 5740 5738 5735 5734 5732 5730 5727 5724 5722 5719 5715 5712 5708 5704 5700 5695 5690 5685 5678 5672 5667 5661 5655 5649 5643 5637 5632 5627 5622 5616 5612 5610 5608 5607 5607 5606 5606 5606 5606 5607 5608 5610 5610 5610 5611 5614 5616 5618 5620 5625 5630 5633 5636 5639 5644 5651 5657 5662 5666 5669 5672 5675 5679 5684 5689 5692
5761 5760 5760 5759 5757 5756 5755 5755 5754 5754 5753 5752 5751 5750 5749 5747 5746 5745 5743 5742 5740 5739 5737 5735 5733 5731 5729 5727 5725 5722 5719 5717 5713 5710 5707 5703 5699 5694 5690 5684 5678 5672 5667 5662 5656 5651 5645 5639 5634 5629 5625 5620 5615 5611 5609 5608 5607 5606 5606 5606 5606 5606 5607 5608 5608 5608 5609 5610 5613 5614 5614 5619 5624 5628 5631 5633 5638 5645 5651 5654 5658 5662 5664 5668 5672 5677 5682 5684
5757 5756 5756 5755 5754 5753 5752 5751 5750 5750 5749 5748 5747 5746 5745 5744 5742 5741 5740 5739 5737 5736 5734 5732 5730 5728 5726 5724 5722 5720 5717 5714 5712 5708 5705 5701 5697 5694 5689 5684 5678 5673 5667 5662 5657 5652 5646 5640 5636 5631 5627 5622 5618 5615 5611 5609 5607 5606 5606 5606 5605 5605 5607 5607 5606 5606 5606 5608 5610 5609 5609 5615 5620 5622 5626 5628 5632 5638 5642 5645 5650 5654 5656 5661 5665 5669 5673 5676
5753 5752 5752 5751 5750 5749 5748 5747 5747 5746 5745 5744 5743 5742 5741 5740 5739 5737 5736 5735 5734 5733 5731 5730 5727 5725 5724 5722 5720 5717 5715 5712 5709 5707 5703 5700 5696 5692 5688 5684 5678 5673 5667 5662 5658 5653 5647 5642 5637 5633 5629 5625 5621 5617 5614 5611 5609 5607 5606 5605 5605 5605 5605 5605 5605 5604 5604 5604 5605 5605 5605 5610 5615 5617 5620 5623 5624 5629 5634 5637 5642 5646 5650 5654 5657 5659 5663 5668
5749 5749 5748 5747 5747 5746 5745 5744 5743 5742 5741 5740 5739 5738 5737 5736 5735 5734 5733 5731 5731 5729 5728 5726 5725 5723 5721 5719 5717 5715 5713 5710 5707 5705 5701 5698 5695 5691 5688 5683 5678 5673 5668 5663 5658 5653 5648 5644 5639 5634 5630 5627 5623 5620 5617 5614 5611 5609 5607 5605 5604 5604 5603 5603 5603 5603 5602 5601 5601 5602 5599 5603 5611 5611 5614 5617 5616 5621 5627 5628 5633 5638 5642 5646 5648 5651 5656 5660
5745 5744 5744 5743 5743 5742 5741 5740 5739 5738 5737 5736 5736 5735 5733 5733 5732 5730 5729 5728 5727 5726 5724 5723 5721 5720 5718 5716 5714 5712 5710 5708 5705 5702 5699 5696 5693 5690 5686 5682 5678 5673 5669 5663 5659 5654 5650 5645 5641 5637 5632 5628 5625 5621 5619 5616 5614 5611 5609 5607 5605 5603 5602 5601 5601 5601 5601 5599 5599 5599 5593 5596 5606 5606 5607 5612 5610 5613 5617 5618 5623 5629 5633 5637 5641 5646 5650 5653
5740 5740 5740 5739 5739 5738 5737 5736 5735 5734 5734 5733 5732 5731 5730 5729 5728 5727 5725 5724 5724 5723 5721 5720 5718 5717 5715 5713 5712 5710 5708 5706 5703 5700 5698 5695 5691 5688 5685 5681 5677 5673 5669 5664 5660 5655 5651 5647 5643 5639 5634 5630 5627 5623 5620 5618 5615 5613 5611 5609 5607 5605 5603 5601 5600 5598 5598 5598 5598 5597 5589 5588 5596 5600 5603 5605 5603 5604 5607 5608 5614 5620 5624 5629 5634 5640 5643 5646
5735 5735 5735 5735 5734 5734 5733 5732 5731 5730 5730 5729 5728 5727 5726 5725 5724 5723 5721 5720 5720 5720 5718 5716 5715 5714 5712 5710 5709 5707 5705 5703 5701 5698 5696 5693 5690 5687 5684 5680 5677 5673 5669 5665 5661 5656 5652 5648 5644 5640 5636 5632 5628 5625 5622 5619 5617 5615 5612 5611 5608 5606 5604 5602 5600 5598 5597 5596 5595 5594 5589 5583 5586 5594 5599 5596 5593 5596 5599 5602 5607 5612 5617 5621 5626 5631 5635 5638
5730 5730 5730 5730 5729 5729 5728 5727 5726 5726 5726 5725 5724 5723 5722 5721 5720 5719 5718 5716 5716 5716 5715 5713 5712 5710 5709 5707 5706 5704 5702 5700 5698 5696 5694 5691 5688 5685 5682 5679 5676 5672 5669 5665 5661 5657 5652 5648 5645 5641 5637 5633 5630 5626 5624 5621 5618 5615 5613 5611 5609 5607 5605 5603 5601 5599 5597 5596 5594 5591 5588 5584 5582 5585 5587 5586 5586 5590 5594 5597 5601 5605 5609 5612 5615 5619 5623 5627
5725 5724 5724 5724 5724 5724 5723 5722 5722 5721 5721 5721 5720 5719 5718 5717 5716 5715 5714 5713 5713 5712 5711 5710 5709 5707 5706 5704 5703 5701 5699 5697 5696 5694 5692 5689 5686 5683 5681 5678 5674 5672 5668 5664 5661 5657 5653 5649 5645 5642 5638 5634 5631 5627 5624 5622 5619 5616 5614 5611 5609 5607 5605 5603 5601 5599 5597 5595 5593 5591 5588 5586 5583 5582 5580 5580 5582 5584 5586 5590 5593 5595 5598 5600 5603 5607 5611 5616
5719 5719 5718 5719 5718 5718 5718 5717 5717 5716 5716 5716 5715 5715 5714 5713 5712 5711 5711 5710 5709 5708 5708 5707 5705 5704 5702 5701 5700 5698 5696 5694 5693 5691 5689 5687 5684 5681 5679 5676 5673 5671 5667 5664 5661 5657 5653 5650 5646 5642 5639 5635 5632 5628 5625 5622 5619 5617 5614 5611 5609 5607 5605 5603 5601 5599 5597 5595 5592 5590 5588 5586 5584 5583 5581 5580 5580 5579 5579 5580 5582 5585 5587 5589 5592 5597 5603 5607
5712 5712 5713 5713 5713 5713 5712 5712 5711 5711 5711 5711 5710 5710 5709 5708 5707 5707 5707 5706 5704 5704 5704 5703 5702 5701 5699 5698 5696 5695 5693 5691 5690 5688 5686 5685 5682 5680 5677 5675 5672 5669 5666 5663 5660 5657 5653 5650 5646 5643 5639 5636 5632 5629 5625 5622 5619 5617 5614 5612 5609 5607 5605 5603 5601 5599 5597 5595 5592 5590 5588 5586 5585 5584 5582 5581 5580 5578 5578 5577 5577 5578 5580 5582 5584 5589 5595 5598
5706 5706 5706 5706 5706 5707 5706 5706 5706 5706 5706 5706 5705 5704 5704 5703 5703 5703 5703 5702 5699 5700 5701 5699 5698 5697 5696 5695 5693 5692 5690 5689 5687 5685 5684 5682 5680 5678 5675 5673 5670 5668 5665 5662 5659 5656 5652 5649 5646 5643 5640 5636 5633 5629 5626 5623 5619 5617 5614 5612 5609 5607 5605 5602 5600 5599 5596 5594 5591 5589 5588 5586 5585 5583 5581 5580 5578 5577 5576 5576 5576 5576 5576 5577 5578 5581 5585 5589
5700 5700 5700 5700 5700 5700 5700 5700 5700 5700 5700 5700 5699 5699 5699 5698 5698 5699 5699 5697 5695 5695 5696 5695 5694 5693 5692 5691 5690 5688 5687 5686 5684 5683 5681 5680 5677 5676 5673 5671 5668 5666 5664 5661 5658 5655 5652 5649 5646 5643 5640 5636 5633 5630 5626 5623 5620 5617 5614 5612 5609 5607 5605 5602 5600 5598 5596 5593 5590 5588 5587 5585 5584 5582 5580 5578 5577 5576 5575 5574 5574 5573 5573 5572 5572 5572 5573 5575
5695 5695 5694 5694 5694 5694 5694 5694 5694 5694 5694 5694 5694 5693 5693 5693 5694 5694 5693 5693 5691 5691 5691 5690 5689 5689 5688 5688 5687 5685 5684 5683 5681 5680 5678 5677 5675 5673 5671 5669 5666 5664 5662 5660 5657 5654 5651 5648 5645 5642 5639 5636 5633 5630 5627 5623 5620 5617 5614 5611 5609 5606 5604 5601 5599 5597 5595 5593 5589 5587 5585 5583 5581 5580 5578 5576 5575 5574 5573 5571 5570 5570 5569 5568 5568 5567 5566 5565
5689 5689 5688 5688 5688 5688 5688 5688 5688 5688 5688 5688 5688 5687 5688 5689 5688 5688 5688 5687 5687 5686 5686 5686 5685 5684 5684 5684 5683 5682 5680 5679 5678 5677 5675 5674 5673 5671 5669 5667 5664 5662 5660 5658 5655 5653 5650 5647 5644 5641 5638 5636 5633 5629 5627 5624 5620 5617 5614 5611 5608 5606 5603 5601 5598 5596 5593 5592 5589 5586 5584 5581 5579 5577 5575 5573 5572 5571 5570 5568 5567 5566 5565 5563 5562 5561 5561 5560
5682 5682 5682 5682 5682 5682 5682 5682 5682 5681 5681 5681 5681 5681 5683 5683 5683 5682 5682 5682 5682 5681 5681 5680 5680 5680 5680 5679 5679 5678 5677 5676 5675 5674 5672 5671 5670 5668 5666 5664 5662 5660 5658 5656 5654 5651 5649 5646 5643 5641 5638 5635 5632 5629 5626 5623 5620 5617 5614 5610 5607 5605 5602 5600 5598 5595 5592 5590 5589 5586 5584 5581 5578 5575 5573 5571 5570 5568 5566 5564 5562 5561 5559 5557 5556 5554 5553 5552
5676 5676 5676 5676 5676 5676 5676 5676 5676 5675 5675 5675 5675 5676 5677 5677 5677 5676 5676 5676 5676 5676 5675 5675 5675 5675 5675 5675 5674 5673 5672 5672 5671 5670 5669 5668 5666 5665 5664 5662 5660 5658 5656 5654 5652 5650 5648 5645 5642 5639 5637 5634 5632 5629 5626 5623 5620 5617 5614 5610 5607 5604 5601 5598 5596 5594 5591 5589 5588 5585 5582 5579 5577 5574 5571 5569 5567 5565 5562 5560 5558 5556 5553 5551 5549 5547 5545 5543
5669 5669 5669 5669 5670 5670 5670 5670 5670 5669 5669 5669 5669 5670 5671 5671 5671 5671 5670 5671 5671 5670 5670 5670 5670 5669 5670 5670 5670 5669 5668 5668 5667 5666 5665 5665 5663 5662 5661 5659 5658 5656 5654 5652 5650 5648 5646 5644 5641 5638 5636 5634 5631 5628 5625 5622 5620 5617 5613 5610 5607 5603 5600 5598 5594 5592 5589 5587 5585 5584 5581 5577 5575 5573 5571 5568 5566 5564 5561 5558 5555 5552 5548 5545 5543 5540 5537 5535
5662 5662 5663 5663 5663 5663 5663 5664 5664 5663 5663 5663 5664 5665 5665 5665 5665 5665 5665 5665 5665 5664 5664 5665 5664 5664 5665 5665 5665 5664 5664 5664 5663 5662 5662 5661 5660 5658 5657 5656 5655 5653 5652 5649 5647 5646 5644 5643 5640 5637 5634 5633 5630 5628 5625 5622 5619 5616 5613 5610 5606 5603 5600 5597 5594 5590 5587 5584 5582 5581 5579 5576 5573 5571 5569 5567 5564 5561 5558 5555 5551 5547 5543 5539 5535 5532 5529 5527
5655 5655 5656 5657 5656 5656 5657 5657 5657 5657 5657 5658 5658 5658 5658 5658 5658 5659 5659 5659 5659 5659 5659 5659 5659 5658 5659 5660 5660 5659 5659 5659 5659 5658 5658 5657 5656 5654 5654 5653 5652 5650 5649 5647 5645 5644 5642 5641 5639 5636 5633 5631 5629 5627 5625 5622 5619 5616 5612 5609 5606 5603 5600 5597 5595 5591 5587 5583 5579 5577 5575 5573 5571 5568 5566 5564 5561 5558 5554 5551 5547 5544 5539 5534 5529 5524 5521 5518
5648 5648 5649 5650 5650 5650 5650 5650 5651 5651 5651 5652 5653 5652 5652 5652 5652 5653 5653 5653 5653 5653 5653 5653 5653 5653 5653 5654 5655 5654 5654 5655 5654 5653 5654 5653 5652 5650 5650 5650 5649 5647 5646 5645 5643 5641 5640 5639 5638 5635 5632 5629 5627 5626 5624 5621 5618 5615 5612 5609 5605 5602 5599 5596 5594 5591 5588 5584 5579 5576 5573 5570 5567 5565 5563 5560 5557 5554 5551 5547 5544 5540 5535 5530 5524 5518 5513 5510
5640 5641 5643 5643 5643 5644 5644 5644 5645 5645 5646 5647 5647 5646 5646 5646 5646 5647 5647 5647 5647 5647 5647 5647 5648 5648 5648 5649 5649 5649 5649 5650 5650 5649 5649 5649 5647 5646 5646 5646 5645 5644 5643 5642 5640 5639 5637 5637 5636 5634 5630 5627 5625 5624 5622 5620 5618 5615 5611 5608 5605 5602 5599 5595 5592 5590 5588 5584 5580 5577 5574 5570 5566 5564 5561 5558 5556 5552 5548 5544 5541 5537 5531 5525 5520 5513 5507 5502
5634 5635 5636 5636 5636 5637 5637 5638 5639 5639 5641 5641 5640 5640 5640 5640 5641 5641 5641 5641 5641 5641 5642 5642 5642 5642 5643 5643 5644 5644 5644 5644 5646 5645 5645 5644 5643 5642 5642 5642 5641 5640 5639 5639 5637 5636 5635 5634 5634 5632 5630 5626 5623 5621 5620 5618 5616 5614 5611 5607 5605 5602 5599 5596 5592 5590 5587 5584 5579 5577 5575 5571 5567 5564 5561 5558 5555 5551 5546 5541 5537 5533 5528 5522 5516 5509 5502 5496
5627 5627 5628 5628 5628 5629 5630 5632 5633 5634 5634 5634 5633 5634 5634 5634 5635 5634 5635 5635 5635 5636 5636 5636 5636 5637 5637 5638 5638 5638 5638 5639 5640 5641 5640 5640 5638 5638 5638 5639 5638 5636 5636 5635 5634 5633 5632 5631 5631 5629 5629 5627 5622 5619 5618 5617 5615 5613 5610 5607 5604 5601 5598 5595 5592 5589 5587 5584 5580 5576 5574 5572 5567 5564 5560 5556 5553 5549 5544 5539 5534 5529 5525 5519 5513 5506 5499 5492
5618 5619 5620 5621 5621 5621 5623 5626 5627 5627 5628 5627 5627 5628 5628 5628 5629 5629 5629 5629 5629 5630 5630 5630 5631 5631 5632 5633 5633 5633 5633 5633 5634 5636 5636 5635 5634 5634 5634 5634 5634 5633 5632 5631 5631 5630 5629 5628 5628 5626 5625 5625 5622 5618 5616 5615 5614 5612 5610 5606 5603 5600 5597 5594 5592 5589 5586 5584 5580 5575 5572 5572 5569 5564 5559 5555 5551 5548 5543 5538 5533 5527 5522 5517 5511 5504 5497 5490
5610 5611 5613 5614 5614 5616 5618 5620 5620 5621 5622 5621 5620 5621 5622 5622 5623 5623 5622 5623 5623 5624 5624 5625 5625 5625 5626 5627 5627 5627 5628 5628 5629 5630 5631 5630 5630 5630 5630 5630 5629 5628 5628 5628 5627 5626 5626 5626 5625 5623 5622 5621 5619 5616 5614 5612 5612 5611 5609 5606 5603 5600 5597 5594 5592 5589 5585 5583 5581 5575 5571 5570 5568 5564 5560 5556 5552 5548 5543 5538 5533 5528 5523 5517 5510 5503 5496 5489
5600 5602 5606 5608 5608 5609 5611 5613 5614 5615 5615 5614 5614 5616 5616 5616 5617 5617 5617 5617 5617 5618 5618 5619 5620 5620 5621 5621 5621 5622 5623 5623 5623 5624 5625 5625 5626 5626 5625 5625 5624 5624 5624 5624 5622 5621 5622 5623 5622 5620 5619 5619 5616 5614 5611 5609 5609 5609 5607 5605 5601 5599 5597 5594 5592 5589 5585 5583 5581 5577 5571 5568 5566 5563 5559 5556 5552 5548 5544 5539 5535 5530 5525 5519 5512 5505 5498 5490
5592 5595 5599 5600 5600 5601 5604 5607 5608 5608 5608 5608 5609 5610 5610 5611 5611 5611 5611 5611 5612 5612 5613 5613 5614 5614 5614 5615 5615 5617 5618 5618 5618 5619 5620 5621 5621 5621 5621 5621 5620 5620 5620 5619 5618 5617 5617 5619 5619 5616 5616 5616 5614 5612 5609 5607 5607 5606 5605 5603 5600 5597 5595 5593 5591 5589 5585 5582 5580 5577 5573 5568 5565 5562 5558 5554 5551 5548 5544 5540 5535 5531 5526 5520 5514 5507 5501 5493
5584 5586 5589 5590 5591 5595 5598 5600 5599 5599 5600 5601 5602 5604 5604 5605 5606 5606 5605 5605 5606 5607 5607 5608 5608 5608 5608 5609 5610 5611 5613 5613 5613 5614 5614 5615 5616 5616 5616 5616 5616 5616 5615 5615 5615 5614 5613 5615 5615 5612 5612 5613 5612 5609 5607 5605 5604 5604 5603 5601 5598 5596 5594 5592 5590 5587 5584 5582 5579 5577 5574 5570 5565 5562 5559 5555 5551 5548 5544 5540 5536 5532 5527 5522 5517 5511 5505 5499
5576 5579 5581 5580 5583 5587 5589 5590 5590 5590 5592 5593 5595 5598 5599 5599 5601 5601 5600 5600 5600 5601 5601 5602 5602 5602 5603 5604 5605 5606 5607 5607 5606 5607 5608 5610 5611 5611 5611 5611 5611 5611 5611 5610 5610 5610 5609 5610 5611 5608 5608 5611 5609 5606 5605 5602 5601 5602 5602 5599 5596 5594 5593 5591 5589 5586 5584 5581 5579 5576 5574 5571 5566 5562 5559 5556 5553 5549 5545 5542 5538 5534 5530 5525 5520 5516 5511 5505
5569 5572 5571 5569 5572 5577 5579 5581 5583 5582 5583 5585 5589 5592 5594 5595 5596 5595 5594 5595 5595 5595 5596 5596 5596 5597 5597 5598 5600 5601 5601 5600 5600 5602 5603 5604 5606 5606 5605 5606 5606 5606 5607 5606 5606 5606 5605 5605 5606 5603 5604 5607 5606 5603 5602 5600 5598 5599 5599 5596 5594 5592 5591 5589 5588 5585 5583 5581 5579 5576 5574 5571 5568 5564 5560 5556 5553 5550 5547 5544 5540 5537 5533 5529 5524 5520 5516 5512
5561 5563 5562 5560 5562 5566 5569 5572 5574 5574 5576 5581 5584 5585 5587 5588 5588 5587 5588 5590 5591 5591 5591 5591 5590 5591 5592 5592 5594 5594 5593 5593 5595 5596 5597 5597 5599 5600 5600 5601 5601 5601 5602 5601 5601 5602 5601 5601 5601 5599 5599 5602 5603 5600 5598 5598 5597 5597 5595 5593 5591 5590 5589 5588 5586 5583 5582 5580 5578 5576 5573 5571 5568 5565 5561 5557 5554 5551 5548 5546 5543 5540 5537 5533 5529 5525 5522 5519